Change the Weather History Date:

Sunday, September 1, 2013

  Actual Average Record
Temperature  
Mean Temperature 76 °F -  
Max Temperature 84 °F 82 °F - ()
Min Temperature 69 °F 66 °F - ()
Cooling Degree Days 12    
Growing Degree Days 26 (Base 50)    
Moisture  
Dew Point 60 °F    
Average Humidity 60    
Maximum Humidity 78    
Minimum Humidity 31    
Precipitation  
Precipitation 0.00 in 0.04 in - ()
Sea Level Pressure  
Sea Level Pressure 30.10 in    
Wind  
Wind Speed 14 mph ()    
Max Wind Speed 30 mph    
Max Gust Speed -    
Visibility 6.7 miles    
Events      
T = Trace of Precipitation, MM = Missing Value Source: Averaged Metar Reports

Daily Weather History Graph

Daily Weather History Graph

Search for Another Location

Airport or City:

Trip Planner

Search our weather history database for the weather conditions in past years. The results will help you decide how hot, cold, wet, or windy it might be!

Date:

Astronomy

Sep. 01, 2013 Rise Set
Actual Time 6:23 AM AEST 6:10 PM AEST
Civil Twilight 6:02 AM AEST 6:32 PM AEST
Nautical Twilight 5:36 AM AEST 6:57 PM AEST
Astronomical Twilight 5:11 AM AEST 7:22 PM AEST
Moon 3:00 AM AEST 2:37 PM AEST
Length of Visible Light 12h 30m
Length of Day
11h 46m
Waning Crescent, 18% of the Moon is Illuminated
Sep 1
Waning Crescent
Sep 5
New
Sep 13
First Quarter
Sep 19
Full
Sep 27
Last Quarter

Hourly Weather History & Observations

Time (AEST) Temp. Heat Index Dew Point Humidity Pressure Visibility Wind Dir Wind Speed Gust Speed Precip Events Conditions
12:00 AM 71 °F - 62 °F 65% 30.11 in - South 10.4 mph - -  
12:00 AM 71.6 °F - 62.6 °F 73% 30.09 in 6.2 mi South 10.4 mph - N/A   Scattered Clouds
12:30 AM 69.8 °F - 62.6 °F 78% 30.09 in 6.2 mi SSE 11.5 mph - N/A   Scattered Clouds
1:00 AM 71 °F - 62 °F 65% 30.11 in - SSE 12.7 mph - -  
1:00 AM 71.6 °F - 62.6 °F 73% 30.09 in 6.2 mi SSE 12.7 mph - N/A   Scattered Clouds
1:30 AM 69.8 °F - 62.6 °F 78% 30.09 in 6.2 mi South 12.7 mph - N/A   Scattered Clouds
2:00 AM 69.8 °F - 60.8 °F 73% 30.09 in 6.2 mi South 10.4 mph - N/A   Scattered Clouds
2:30 AM 69.8 °F - 60.8 °F 73% 30.06 in 6.2 mi South 11.5 mph - N/A   Scattered Clouds
3:00 AM 71 °F - 60 °F 61% 30.09 in - SSE 10.4 mph - -   Overcast
3:00 AM 69.8 °F - 60.8 °F 73% 30.06 in 6.2 mi SSE 10.4 mph - N/A   Mostly Cloudy
3:30 AM 69.8 °F - 59.0 °F 68% 30.06 in 6.2 mi SSE 11.5 mph - N/A   Scattered Clouds
4:00 AM 69.8 °F - 60.8 °F 73% 30.06 in 6.2 mi South 9.2 mph - N/A   Scattered Clouds
4:30 AM 71.6 °F - 59.0 °F 64% 30.06 in 6.2 mi South 9.2 mph - N/A   Scattered Clouds
5:00 AM 69.8 °F - 59.0 °F 68% 30.06 in 6.2 mi SSE 10.4 mph - N/A   Scattered Clouds
5:30 AM 69.8 °F - 59.0 °F 68% 30.06 in 6.2 mi SSE 9.2 mph - N/A   Scattered Clouds
6:00 AM 69 °F - 59 °F 62% 30.09 in - South 11.5 mph - -  
6:00 AM 69.8 °F - 59.0 °F 68% 30.09 in 6.2 mi South 11.5 mph - N/A   Scattered Clouds
6:30 AM 69.8 °F - 59.0 °F 68% 30.09 in 6.2 mi South 11.5 mph - N/A   Partly Cloudy
7:00 AM 71 °F - 60 °F 59% 30.11 in - South 11.5 mph - -  
7:00 AM 71.6 °F - 59.0 °F 64% 30.09 in 6.2 mi South 11.5 mph - N/A   Partly Cloudy
7:30 AM 71.6 °F - 60.8 °F 69% 30.09 in 6.2 mi SSE 12.7 mph - N/A   Partly Cloudy
8:00 AM 73.4 °F - 60.8 °F 65% 30.12 in 6.2 mi SSE 12.7 mph - N/A   Partly Cloudy
8:30 AM 77.0 °F - 60.8 °F 57% 30.12 in 6.2 mi SSE 15.0 mph - N/A   Partly Cloudy
9:00 AM 78 °F - 58 °F 40% 30.13 in 19 mi SSE 18.4 mph - -   Partly Cloudy
9:00 AM 77.0 °F - 59.0 °F 54% 30.12 in 6.2 mi SSE 18.4 mph - N/A   Partly Cloudy
9:30 AM 78.8 °F - 59.0 °F 51% 30.12 in 6.2 mi SSE 23.0 mph - N/A   Partly Cloudy
10:00 AM 78 °F - 60 °F 44% 30.14 in - SE 24.2 mph - -  
10:00 AM 78.8 °F - 60.8 °F 54% 30.12 in 6.2 mi SE 24.2 mph - N/A   Scattered Clouds
10:30 AM 78.8 °F - 57.2 °F 47% 30.12 in 6.2 mi SE 25.3 mph - N/A   Scattered Clouds
11:00 AM 80.6 °F 80.8 °F 57.2 °F 45% 30.09 in 6.2 mi SSE 27.6 mph - N/A   Partly Cloudy
11:30 AM 82.4 °F 82.0 °F 57.2 °F 42% 30.09 in 6.2 mi SE 29.9 mph - N/A   Partly Cloudy
12:00 PM 83 °F - 57 °F 31% 30.10 in - SSE 27.6 mph - -  
12:00 PM 84.2 °F 83.5 °F 57.2 °F 40% 30.09 in 6.2 mi SSE 27.6 mph - N/A   Partly Cloudy
1:00 PM 81 °F - 57 °F 33% 30.09 in - SE 25.3 mph - -  
1:00 PM 80.6 °F 80.8 °F 57.2 °F 45% 30.06 in 6.2 mi SE 25.3 mph - N/A   Partly Cloudy
1:30 PM 82.4 °F 82.0 °F 57.2 °F 42% 30.06 in 6.2 mi SE 25.3 mph - N/A   Scattered Clouds
2:00 PM 82.4 °F 82.5 °F 59.0 °F 45% 30.04 in 6.2 mi SE 24.2 mph - N/A   Scattered Clouds
2:30 PM 80.6 °F 81.8 °F 62.6 °F 54% 30.04 in 6.2 mi SE 25.3 mph - N/A   Scattered Clouds
3:00 PM 79 °F - 61 °F 43% 30.06 in 19 mi SE 27.6 mph - -   Partly Cloudy
3:00 PM 78.8 °F - 60.8 °F 54% 30.04 in 6.2 mi SE 27.6 mph - N/A   Scattered Clouds
4:00 PM 78.8 °F - 60.8 °F 54% 30.04 in 6.2 mi SE 25.3 mph - N/A   Scattered Clouds
4:30 PM 78.8 °F - 60.8 °F 54% 30.06 in 6.2 mi SE 24.2 mph - N/A   Partly Cloudy
5:00 PM 77.0 °F - 59.0 °F 54% 30.06 in 6.2 mi SE 21.9 mph - N/A   Partly Cloudy
5:30 PM 75.2 °F - 60.8 °F 61% 30.06 in 6.2 mi SE 19.6 mph - N/A   Partly Cloudy
6:00 PM 75 °F - 60 °F 51% 30.09 in - SE 20.7 mph - -  
6:00 PM 75.2 °F - 60.8 °F 61% 30.09 in 6.2 mi SE 20.7 mph - N/A   Partly Cloudy
6:30 PM 73.4 °F - 62.6 °F 69% 30.09 in 6.2 mi SSE 19.6 mph - N/A   Partly Cloudy
7:00 PM 73 °F - 61 °F 58% 30.12 in - SSE 12.7 mph - -  
7:00 PM 73.4 °F - 60.8 °F 65% 30.09 in 6.2 mi SSE 12.7 mph - N/A   Partly Cloudy
7:30 PM 73.4 °F - 60.8 °F 65% 30.12 in 6.2 mi SSE 12.7 mph - N/A   Partly Cloudy
8:00 PM 73.4 °F - 62.6 °F 69% 30.12 in 6.2 mi SSE 13.8 mph - N/A   Partly Cloudy
8:30 PM 73.4 °F - 62.6 °F 69% 30.15 in 6.2 mi SSE 16.1 mph - N/A   Scattered Clouds
9:00 PM 72 °F - 62 °F 64% 30.16 in - SSE 12.7 mph - -  
9:00 PM 73.4 °F - 62.6 °F 69% 30.15 in 6.2 mi SSE 12.7 mph - N/A   Scattered Clouds
9:30 PM 71.6 °F - 62.6 °F 73% 30.15 in 6.2 mi SSE 15.0 mph - N/A   Scattered Clouds
10:00 PM 71 °F - 62 °F 67% 30.17 in - South 13.8 mph - -  
10:00 PM 71.6 °F - 62.6 °F 73% 30.15 in 6.2 mi South 13.8 mph - N/A   Scattered Clouds
10:30 PM 71.6 °F - 62.6 °F 73% 30.15 in 6.2 mi SSE 12.7 mph - N/A   Partly Cloudy
11:00 PM 71.6 °F - 62.6 °F 73% 30.15 in 6.2 mi South 13.8 mph - N/A   Partly Cloudy